Regional Weather Roundup
Issued by NWS

Home | Current Version | Previous Version | Graphics & Text | Print | Product List | Glossary On
Versions: 1 2 3 4 5 6 7 8 9 10 11 12 13 14 15 16 17 18 19 20 21 22 23 24 25 26 27 28 29 30 31 32 33 34 35 36 37 38 39 40 41 42 43 44 45 46 47 48 49 50
882
ASUS43 KMPX 151501
RWRMN
WEATHER ROUNDUP FOR MINNESOTA
NATIONAL WEATHER SERVICE TWIN CITIES/CHANHASSEN MN
900 AM CST FRI DEC 15 2017


NOTE: "FAIR" INDICATES FEW OR NO CLOUDS BELOW 12,000 FEET WITH NO
SIGNIFICANT WEATHER AND/OR OBSTRUCTIONS TO VISIBILITY. N/A MEANS
CURRENT SKY AND/OR WEATHER CONDITIONS ARE NOT AVAILABLE.

MNZ060>063-068>070-151600-
   Twin Cities Metro

CITY           SKY/WX    TMP DP  RH WIND       PRES   REMARKS
TWIN CITIES    CLOUDY    24  21  88 W3        29.89S
ST PAUL        CLOUDY    23  17  78 CALM      29.91R
CRYSTAL        CLOUDY    22  14  71 N3        29.88S
BLAINE         CLOUDY    21  18  86 NW3       29.88S
LAKEVILLE        N/A     21  21 100 CALM      29.89R
EDEN PRAIRIE   CLOUDY    23  20  88 SW3       29.88S
SOUTH ST PAUL  CLOUDY    24  19  81 CALM      29.89F
LAKE ELMO      CLOUDY    21  18  86 NE3       29.90R
$$
MNZ001>005-007-008-013>017-022>024-027-028-151600-
   Northwest Minnesota

CITY           SKY/WX    TMP DP  RH WIND       PRES   REMARKS
BEMIDJI        LGT SNOW   7   4  86 CALM      29.82F
HALLOCK        FLURRIES  12  10  92 SE7       29.83F WCI   2
ROSEAU         CLOUDY     9   3  78 SE3       29.83F
WARROAD        CLOUDY     7   1  78 CALM      29.84F
CROOKSTON      LGT SNOW  16  12  86 SE6       29.85F WCI   7
FOSSTON        FLURRIES   7   3  85 CALM      29.82F
DETROIT LAKES  CLOUDY    18  14  86 CALM      29.83F
MOORHEAD       LGT SNOW  18  16  93 CALM      29.85F
PARK RAPIDS    CLOUDY     9   5  84 CALM      29.81F
MAHNOMEN       FLURRIES  10   8  90 SE3       29.83F
$$
MNZ006-009>011-018-025>026-151600-
   North Central Minnesota

CITY           SKY/WX    TMP DP  RH WIND       PRES   REMARKS
BAUDETTE       CLOUDY     7   3  84 SW5       29.83S WCI  -2
FLAG ISLAND    CLOUDY     7   1  78 SW3       29.83F
INTL FALLS     CLOUDY     5   0  79 W7        29.84S WCI  -7
WASKISH        CLOUDY     7   3  85 CALM      29.84S
BIG FORK       CLOUDY     7   1  78 CALM      29.83S
LONGVILLE      LGT SNOW   9   5  85 CALM      29.84S
GRAND RAPIDS   FLURRIES   8   4  83 W6        29.85S WCI  -2
CRANE LAKE     CLOUDY     7   1  78 NW3       29.85S
ORR            CLOUDY     7   0  72 W3        29.79F
COOK           CLOUDY     7   1  78 NW5       29.82S WCI  -2
WALKER         LGT SNOW   7   3  85 CALM      29.83F
$$
MNZ012-019>021-037-151600-
   Northeast Minnesota

CITY           SKY/WX    TMP DP  RH WIND       PRES   REMARKS
DULUTH         FLURRIES   9   3  77 NW9       29.81S WCI  -4
ELY            CLOUDY     7   1  78 N3        29.79F
HIBBING        LGT SNOW   7   3  84 W3        29.82S VSB 1
EVELETH        FLURRIES   6   0  73 W8        29.82F WCI  -6
DULUTH HARBOR  CLOUDY    16   7  67 NW9       29.89S WCI   4
TWO HARBORS    CLOUDY    14   5  67 NW6       29.82S WCI   5
SILVER BAY     MOCLDY    12   1  62 NW6       29.80S WCI   3
GRAND MARAIS     N/A     13   3  64 E3        29.81F
G MARAIS ARPRT LGT SNOW   3  -2  78 NW7       29.70F WCI  -9
$$
MNZ029>031-032-039>041-046>048-054>057-064-151600-
   West Central Minnesota

CITY           SKY/WX    TMP DP  RH WIND       PRES   REMARKS
FERGUS FALLS   CLOUDY    19  16  86 CALM      29.89S
WHEATON        LGT SNOW  23  21  93 CALM      29.88F
MORRIS         LGT SNOW  23  21  93 CALM      29.86F
ALEXANDRIA     CLOUDY    20  16  84 CALM      29.85F
ELBOW LAKE     CLOUDY    21  18  90 S3        29.86F
WADENA         CLOUDY    12  10  92 CALM      29.83
GLENWOOD       CLOUDY    19  18  93 CALM      29.86F
APPLETON       LGT SNOW  27  23  86 CALM      29.87F
BENSON         MIX PCPN  25  21  86 CALM      29.89S
ORTONVILLE     CLOUDY    25  21  86 CALM      29.86F
MADISON        CLOUDY    28  28 100 NE3       29.87F
WILLMAR        CLOUDY    25  21  86 N3        29.88S
$$
MNZ033>034-036-042>043-049>051-058-059-151600-
   Central Minnesota

CITY           SKY/WX    TMP DP  RH WIND       PRES   REMARKS
ST CLOUD       CLOUDY    16  14  92 CALM      29.88R
SAUK CENTRE    CLOUDY    19  15  84 NW3       29.87S
PAYNESVILLE    CLOUDY    23  20  89 CALM      29.88R
AITKIN         CLOUDY    12   7  79 CALM      29.84S
PINE RIVER     CLEAR      9   5  85 CALM      29.87F
BRAINERD       CLOUDY    15   8  73 NW5       29.86R WCI   8
STAPLES        CLOUDY    10   9  92 CALM      29.84F
LITTLE FALLS   CLOUDY    14  10  85 CALM      29.87F
LITCHFIELD     CLOUDY    25  21  86 CALM      29.88S
BUFFALO        CLOUDY    21  17  83 N3        29.90S
MAPLE LAKE     CLOUDY    21  18  88 N3        29.89S
HUTCHINSON     CLOUDY    26  24  90 CALM      29.89R
$$
MNZ037-044-045-052-053-151600-
   East Central Minnesota

CITY           SKY/WX    TMP DP  RH WIND       PRES   REMARKS
PRINCETON      PTCLDY    16  10  79 CALM      29.88S
MORA           CLOUDY    16  10  79 NW3       29.89S
CAMBRIDGE      CLOUDY    18   9  68 CALM      29.89S
RUSH CITY      CLOUDY    16  10  77 NW3       29.89S
MOOSE LAKE     CLOUDY    12   5  73 CALM      29.84S
HINCKLEY       FLURRIES  18  10  73 NW6       29.86F WCI   9
CLOQUET        FLURRIES  10   3  72 W5        29.83S WCI   2
MCGREGOR       CLOUDY    12   9  85 NW3       29.85S
$$
MNZ071>073-080-081-089-090-097-098-151600-
   Southwest Minnesota

CITY           SKY/WX    TMP DP  RH WIND       PRES   REMARKS
MONTEVIDEO     LGT SNOW  27  25  93 E3        29.88S
GRANITE FALLS  LGT SNOW  31  29  92 NW3       29.89S
CANBY          CLOUDY    32  29  88 SW3       29.87S
MARSHALL       MIX PCPN  31  28  89 W9        29.88S WCI  23
REDWOOD FALLS  CLOUDY    32  28  85 W6        29.87F WCI  26
OLIVIA         MIX PCPN  28  27  93 NE3       29.87S
PIPESTONE      CLOUDY    28  27  93 W8        29.86S WCI  20
WINDOM         FLURRIES  30  19  64 SW8       29.86F WCI  23
WORTHINGTON    MOCLDY    30  27  88 W12       29.88F WCI  20
JACKSON        FLURRIES  32  28  86 MISG      29.88F
SLAYTON        CLOUDY    30  28  91 W9        29.87F WCI  21
$$
MNZ065>067-074>077-082>085-091>093-151600-
   South Central Minnesota

CITY           SKY/WX    TMP DP  RH WIND       PRES   REMARKS
MANKATO        CLOUDY    29  27  92 W3        29.89R
NEW ULM        CLOUDY    28  27  93 W3        29.87F
ST JAMES       CLOUDY    30  27  86 W8        29.89S WCI  23
FAIRMONT       FLURRIES  30  27  88 W12       29.89S WCI  20
GLENCOE        CLOUDY    26  26  99 N3        29.89R
FARIBAULT      MIX PCPN  27  25  93 CALM      29.88R
OWATONNA       CLOUDY    27  27 100 CALM      29.87R
WASECA         CLOUDY    28  27  93 CALM      29.89S
ALBERT LEA     CLOUDY    28  25  86 W7        29.87S WCI  21
$$
MNZ078>079-086>088-094>096-151600-
   Southeast Minnesota

CITY           SKY/WX    TMP DP  RH WIND       PRES   REMARKS
ROCHESTER      LGT SNOW  25  24  96 SW8       29.86S FOG     WCI  16
RED WING       CLOUDY    25  18  74 CALM      29.88F
STANTON        CLOUDY    27  23  86 CALM      29.88R
DODGE CENTER   LGT SNOW  25  25 100 SW6       29.86S WCI  18
WINONA         CLOUDY    28  19  69 CALM      29.91S
PRESTON        FLURRIES  25  22  89 SW9       29.87S WCI  15
$$
ABBREVIATIONS USED IN REMARKS
   TC - TEMPERATURES IN CELSIUS
  WCI - WIND CHILL INDEX
   HX - HEAT INDEX
  VSB - VISIBILITY
$$




USA.gov is the U.S. government's official web portal to all federal, state and local government web resources and services.